Weather in Entuziast

Russia / Vladimir Oblast     56°35′08″N   39°46′43″E
temp.,
°C
wind,
m/s
gust,
m/s
humid.,
%
clouds,
%
prec.,
mm/h
press.,
hPa
HPBL,
m
25 february, thu
thu2500:00−15s61095100 0.4 1027403
03:00−14ssw61095100 2.1 1024389
06:00−13ssw71295100 2.4 1019358
09:00−9ssw61195100 5.3 1014409
12:00−1sw51096100 1.1 1011313
15:00+2wnw612100100 1.3 1011347
18:00+1wnw51299100 0.1 1012370
21:00+1wnw51198100 0.1 1013383
26 february, fri
fri2600:00−1w4894100 0.0 1011157
03:00+1wsw49100100 0.2 1011221
06:00+1wsw49100100 0.6 1008244
09:00+2wsw612100100 1.5 1006315
12:00+2sw613100100 0.9 1002345
15:00+2wsw615100100 1.7 1000421
18:00+2w7169495 0.8 999793
21:000w9169797 0.8 999878
27 february, sat
sat2700:00+1wnw91597100 0.2 997862
03:00+1wnw91597100 0.5 998832
06:00+1wnw91596100 0.3 998919
09:00−1nnw71197100 1.4 999599
12:00−7nnw71190100 1.3 1001625
15:00−7nnw61091100 1.3 1004583
18:00−7n6991100 0.1 1006527
21:00−7n5992100 0.1 1009541
28 february, sun
sun2800:00−11nnw379799 0.1 1011163
03:00−13nnw389681 0.1 1013149
06:00−12nnw379782 0.1 1014164
09:00−10nnw499485 0.1 1015369
12:00−6n5109199 0.1 1017667
15:00−4n6990100 0.1 1018780
18:00−5nnw41095100 0.2 1019600
21:00−7nnw41194100 0.4 1022370
1 march, mon
mon100:00−8nnw389699 0.1 1023207
03:00−10nw349792 0.1 102558
06:00−10nw339783 0.0 102533
09:00−8wnw359690 0.1 1026141
12:00−4w469365 0.0 1026307
15:00−2wsw599179 0.0 1024486
18:00−1w61194100 0.0 1022554
21:000w61293100 0.1 1019623